TimeMDT,TemperatureF,Dew PointF,Humidity,Sea Level PressureIn,VisibilityMPH,Wind Direction,Wind SpeedMPH,Gust SpeedMPH,PrecipitationIn,Events,Conditions,WindDirDegrees,DateUTC
12:53 AM,46.9,30.9,54,29.72,10.0,SW,12.7,-,N/A,,Mostly Cloudy,230,2012-10-21 06:53:00
1:53 AM,45.0,28.0,52,29.75,9.0,SSW,12.7,-,N/A,,Clear,210,2012-10-21 07:53:00
2:53 AM,43.0,27.0,53,29.77,8.0,SW,12.7,-,N/A,,Clear,220,2012-10-21 08:53:00
3:53 AM,41.0,26.1,55,29.78,8.0,SW,9.2,-,N/A,,Clear,220,2012-10-21 09:53:00
4:53 AM,41.0,26.1,55,29.78,7.0,SSW,8.1,-,0.00,,Clear,210,2012-10-21 10:53:00
5:53 AM,41.0,26.1,55,29.78,7.0,SSW,8.1,-,N/A,,Clear,200,2012-10-21 11:53:00
6:53 AM,42.1,25.0,51,29.80,7.0,SSW,6.9,-,N/A,,Clear,200,2012-10-21 12:53:00
7:53 AM,42.1,25.0,51,29.80,7.0,SSW,8.1,-,N/A,,Clear,210,2012-10-21 13:53:00
8:53 AM,43.0,26.1,51,29.81,5.0,SSW,6.9,-,N/A,,Haze,210,2012-10-21 14:53:00
9:53 AM,46.0,25.0,44,29.81,10.0,SSW,8.1,-,N/A,,Clear,210,2012-10-21 15:53:00
10:53 AM,48.9,21.0,33,29.81,10.0,West,9.2,-,N/A,,Clear,270,2012-10-21 16:53:00
11:53 AM,50.0,21.9,33,29.79,10.0,WNW,6.9,-,N/A,,Clear,300,2012-10-21 17:53:00
12:53 PM,52.0,21.9,31,29.79,10.0,WNW,3.5,-,N/A,,Clear,300,2012-10-21 18:53:00
1:53 PM,51.1,21.9,32,29.78,10.0,Calm,Calm,-,N/A,,Scattered Clouds,0,2012-10-21 19:53:00
2:53 PM,52.0,23.0,32,29.77,10.0,NNW,4.6,-,N/A,,Clear,330,2012-10-21 20:53:00
3:53 PM,52.0,23.0,32,29.76,10.0,NW,3.5,-,N/A,,Overcast,310,2012-10-21 21:53:00
4:53 PM,51.1,23.0,33,29.76,10.0,NNW,3.5,-,N/A,,Overcast,330,2012-10-21 22:53:00
5:53 PM,52.0,23.0,32,29.74,10.0,Calm,Calm,-,N/A,,Overcast,0,2012-10-21 23:53:00
6:53 PM,46.0,27.0,47,29.75,10.0,NNE,3.5,-,N/A,,Clear,30,2012-10-22 00:53:00
7:53 PM,37.9,23.0,55,29.77,10.0,ENE,3.5,-,N/A,,Mostly Cloudy,70,2012-10-22 01:53:00
8:53 PM,39.0,25.0,57,29.76,9.0,East,4.6,-,0.00,,Unknown,90,2012-10-22 02:53:00
9:53 PM,39.0,25.0,57,29.74,10.0,SE,5.8,-,0.00,,Clear,140,2012-10-22 03:53:00
10:53 PM,37.9,24.1,57,29.73,9.0,SSW,6.9,-,0.00,Snow,Light Snow,200,2012-10-22 04:53:00
11:53 PM,39.0,24.1,55,29.73,8.0,SW,5.8,-,0.00,,Clear,220,2012-10-22 05:53:00